owner,sensor,date,latitude,longitude,air_pressure(mBar),qcFlag 
TABS,ioos:station:wmo:42043:1,2009-04-01T00:00:00Z,28.9818,-94.9186,1010.15,11111222 
TABS,ioos:station:wmo:42043:1,2009-04-01T00:30:00Z,28.9818,-94.9186,1010.34,11111222 
TABS,ioos:station:wmo:42043:1,2009-04-01T01:00:00Z,28.9818,-94.9186,1010.65,11111222 
TABS,ioos:station:wmo:42043:1,2009-04-01T01:30:00Z,28.9818,-94.9186,1010.84,11111222 
TABS,ioos:station:wmo:42043:1,2009-04-01T02:00:00Z,28.9818,-94.9186,1011.18,11111222 
TABS,ioos:station:wmo:42043:1,2009-04-01T02:30:00Z,28.9818,-94.9186,1011.62,11111222 
TABS,ioos:station:wmo:42043:1,2009-04-01T03:00:00Z,28.9818,-94.9186,1012.02,11111222 
TABS,ioos:station:wmo:42043:1,2009-04-01T03:30:00Z,28.9818,-94.9186,1012.25,11111222 
TABS,ioos:station:wmo:42043:1,2009-04-01T04:00:00Z,28.9818,-94.9186,1012.16,11111222 
TABS,ioos:station:wmo:42043:1,2009-04-01T04:30:00Z,28.9818,-94.9186,1012.06,11111222 
TABS,ioos:station:wmo:42043:1,2009-04-01T05:00:00Z,28.9818,-94.9186,1012.11,11111222 
TABS,ioos:station:wmo:42043:1,2009-04-01T05:30:00Z,28.9818,-94.9186,1011.95,11111222 
TABS,ioos:station:wmo:42043:1,2009-04-01T06:00:00Z,28.9818,-94.9186,1012.2,11111222 
TABS,ioos:station:wmo:42043:1,2009-04-01T06:30:00Z,28.9818,-94.9186,1012.26,11111222 
TABS,ioos:station:wmo:42043:1,2009-04-01T07:00:00Z,28.9818,-94.9186,1011.78,11111222 
TABS,ioos:station:wmo:42043:1,2009-04-01T07:30:00Z,28.9818,-94.9186,1011.36,11111222 
TABS,ioos:station:wmo:42043:1,2009-04-01T08:00:00Z,28.9818,-94.9186,1011.31,11111222 
TABS,ioos:station:wmo:42043:1,2009-04-01T08:30:00Z,28.9818,-94.9186,1011.26,11111222 
TABS,ioos:station:wmo:42043:1,2009-04-01T09:00:00Z,28.9818,-94.9186,1011.02,11111222 
TABS,ioos:station:wmo:42043:1,2009-04-01T09:30:00Z,28.9818,-94.9186,1010.6,11111222 
TABS,ioos:station:wmo:42043:1,2009-04-01T10:00:00Z,28.9818,-94.9186,1010.71,11111222 
TABS,ioos:station:wmo:42043:1,2009-04-01T10:30:00Z,28.9818,-94.9186,1010.36,11111222 
TABS,ioos:station:wmo:42043:1,2009-04-01T11:00:00Z,28.9818,-94.9186,1010.58,11111222 
TABS,ioos:station:wmo:42043:1,2009-04-01T11:30:00Z,28.9818,-94.9186,1010.73,11111222 
TABS,ioos:station:wmo:42043:1,2009-04-01T12:00:00Z,28.9818,-94.9186,1010.75,11111222 
TABS,ioos:station:wmo:42043:1,2009-04-01T12:30:00Z,28.9818,-94.9186,1010.8,11111222 
TABS,ioos:station:wmo:42043:1,2009-04-01T13:00:00Z,28.9818,-94.9186,1010.9,11111222 
TABS,ioos:station:wmo:42043:1,2009-04-01T13:30:00Z,28.9818,-94.9186,1010.78,11111222 
TABS,ioos:station:wmo:42043:1,2009-04-01T14:00:00Z,28.9818,-94.9186,1010.85,11111222 
TABS,ioos:station:wmo:42043:1,2009-04-01T14:30:00Z,28.9818,-94.9186,1010.65,11111222 
TABS,ioos:station:wmo:42043:1,2009-04-01T15:00:00Z,28.9818,-94.9186,1010.75,11111222 
TABS,ioos:station:wmo:42043:1,2009-04-01T15:30:00Z,28.9818,-94.9186,1010.92,11111222 
TABS,ioos:station:wmo:42043:1,2009-04-01T16:00:00Z,28.9818,-94.9186,1010.8,11111222 
TABS,ioos:station:wmo:42043:1,2009-04-01T16:30:00Z,28.9818,-94.9186,1010.67,11111222 
TABS,ioos:station:wmo:42043:1,2009-04-01T17:00:00Z,28.9818,-94.9186,1010.5,11111222 
TABS,ioos:station:wmo:42043:1,2009-04-01T17:30:00Z,28.9818,-94.9186,1010.0,11111222 
TABS,ioos:station:wmo:42043:1,2009-04-01T18:00:00Z,28.9818,-94.9186,1009.08,11111222 
TABS,ioos:station:wmo:42043:1,2009-04-01T18:30:00Z,28.9818,-94.9186,1008.53,11111222 
TABS,ioos:station:wmo:42043:1,2009-04-01T19:00:00Z,28.9818,-94.9186,1007.9,11111222 
TABS,ioos:station:wmo:42043:1,2009-04-01T19:30:00Z,28.9818,-94.9186,1007.1,11111222 
TABS,ioos:station:wmo:42043:1,2009-04-01T20:00:00Z,28.9818,-94.9186,1005.88,11111222 
TABS,ioos:station:wmo:42043:1,2009-04-01T20:30:00Z,28.9818,-94.9186,1005.74,11111222 
TABS,ioos:station:wmo:42043:1,2009-04-01T21:00:00Z,28.9818,-94.9186,1005.84,11111222 
TABS,ioos:station:wmo:42043:1,2009-04-01T21:30:00Z,28.9818,-94.9186,1004.49,11111222 
TABS,ioos:station:wmo:42043:1,2009-04-01T22:00:00Z,28.9818,-94.9186,1004.39,11111222 
TABS,ioos:station:wmo:42043:1,2009-04-01T22:30:00Z,28.9818,-94.9186,1005.1,11111222 
TABS,ioos:station:wmo:42043:1,2009-04-01T23:00:00Z,28.9818,-94.9186,1004.32,11111222 
TABS,ioos:station:wmo:42043:1,2009-04-01T23:30:00Z,28.9818,-94.9186,1003.97,11111222 
TABS,ioos:station:wmo:42043:1,2009-04-02T00:00:00Z,28.9818,-94.9186,1003.51,11111222 
TABS,ioos:station:wmo:42043:1,2009-04-02T00:30:00Z,28.9818,-94.9186,1003.54,11111222 
TABS,ioos:station:wmo:42043:1,2009-04-02T01:00:00Z,28.9818,-94.9186,1004.32,11111222 
TABS,ioos:station:wmo:42043:1,2009-04-02T01:30:00Z,28.9818,-94.9186,1004.64,11111222 
TABS,ioos:station:wmo:42043:1,2009-04-02T02:00:00Z,28.9818,-94.9186,1004.27,11111222 
TABS,ioos:station:wmo:42043:1,2009-04-02T02:30:00Z,28.9818,-94.9186,1004.39,11111222 
TABS,ioos:station:wmo:42043:1,2009-04-02T03:00:00Z,28.9818,-94.9186,1004.21,11111222 
TABS,ioos:station:wmo:42043:1,2009-04-02T03:30:00Z,28.9818,-94.9186,1004.01,11111222 
TABS,ioos:station:wmo:42043:1,2009-04-02T04:00:00Z,28.9818,-94.9186,1002.15,11111222 
TABS,ioos:station:wmo:42043:1,2009-04-02T04:30:00Z,28.9818,-94.9186,1001.39,11111222 
TABS,ioos:station:wmo:42043:1,2009-04-02T05:00:00Z,28.9818,-94.9186,1001.97,11111222 
TABS,ioos:station:wmo:42043:1,2009-04-02T05:30:00Z,28.9818,-94.9186,1001.76,11111222 
TABS,ioos:station:wmo:42043:1,2009-04-02T06:00:00Z,28.9818,-94.9186,1001.24,11111222 
TABS,ioos:station:wmo:42043:1,2009-04-02T06:30:00Z,28.9818,-94.9186,1001.12,11111222 
TABS,ioos:station:wmo:42043:1,2009-04-02T07:00:00Z,28.9818,-94.9186,1000.52,11111222 
TABS,ioos:station:wmo:42043:1,2009-04-02T07:30:00Z,28.9818,-94.9186,999.98,11111222 
TABS,ioos:station:wmo:42043:1,2009-04-02T08:00:00Z,28.9818,-94.9186,999.97,11111222 
TABS,ioos:station:wmo:42043:1,2009-04-02T08:30:00Z,28.9818,-94.9186,999.2,11111222 
TABS,ioos:station:wmo:42043:1,2009-04-02T09:00:00Z,28.9818,-94.9186,999.65,11111222 
TABS,ioos:station:wmo:42043:1,2009-04-02T09:30:00Z,28.9818,-94.9186,999.91,11111222 
TABS,ioos:station:wmo:42043:1,2009-04-02T10:00:00Z,28.9818,-94.9186,999.36,11111222 
TABS,ioos:station:wmo:42043:1,2009-04-02T10:30:00Z,28.9818,-94.9186,999.43,11111222 
TABS,ioos:station:wmo:42043:1,2009-04-02T11:00:00Z,28.9818,-94.9186,999.76,11111222 
TABS,ioos:station:wmo:42043:1,2009-04-02T11:30:00Z,28.9818,-94.9186,999.59,11111222 
TABS,ioos:station:wmo:42043:1,2009-04-02T12:00:00Z,28.9818,-94.9186,999.7,11111222 
TABS,ioos:station:wmo:42043:1,2009-04-02T12:30:00Z,28.9818,-94.9186,999.93,11111222 
TABS,ioos:station:wmo:42043:1,2009-04-02T13:00:00Z,28.9818,-94.9186,1000.45,11111222 
TABS,ioos:station:wmo:42043:1,2009-04-02T13:30:00Z,28.9818,-94.9186,1001.83,11111222 
TABS,ioos:station:wmo:42043:1,2009-04-02T14:00:00Z,28.9818,-94.9186,1001.78,11111222 
TABS,ioos:station:wmo:42043:1,2009-04-02T14:30:00Z,28.9818,-94.9186,1003.26,11111222 
TABS,ioos:station:wmo:42043:1,2009-04-02T15:00:00Z,28.9818,-94.9186,1003.33,11111222 
TABS,ioos:station:wmo:42043:1,2009-04-02T15:30:00Z,28.9818,-94.9186,1003.56,11111222 
TABS,ioos:station:wmo:42043:1,2009-04-02T16:00:00Z,28.9818,-94.9186,1003.42,11111222 
TABS,ioos:station:wmo:42043:1,2009-04-02T16:30:00Z,28.9818,-94.9186,1003.23,11111222 
TABS,ioos:station:wmo:42043:1,2009-04-02T17:00:00Z,28.9818,-94.9186,1003.27,11111222 
TABS,ioos:station:wmo:42043:1,2009-04-02T17:30:00Z,28.9818,-94.9186,1003.34,11111222 
TABS,ioos:station:wmo:42043:1,2009-04-02T18:00:00Z,28.9818,-94.9186,1003.21,11111222 
TABS,ioos:station:wmo:42043:1,2009-04-02T18:30:00Z,28.9818,-94.9186,1003.16,11111222 
TABS,ioos:station:wmo:42043:1,2009-04-02T19:00:00Z,28.9818,-94.9186,1003.41,11111222 
TABS,ioos:station:wmo:42043:1,2009-04-02T19:30:00Z,28.9818,-94.9186,1003.44,11111222 
TABS,ioos:station:wmo:42043:1,2009-04-02T20:00:00Z,28.9818,-94.9186,1003.16,11111222 
TABS,ioos:station:wmo:42043:1,2009-04-02T20:30:00Z,28.9818,-94.9186,1003.04,11111222 
TABS,ioos:station:wmo:42043:1,2009-04-02T21:00:00Z,28.9818,-94.9186,1003.64,11111222 
TABS,ioos:station:wmo:42043:1,2009-04-02T21:30:00Z,28.9818,-94.9186,1003.58,11111222 
TABS,ioos:station:wmo:42043:1,2009-04-02T22:00:00Z,28.9818,-94.9186,1004.1,11111222 
TABS,ioos:station:wmo:42043:1,2009-04-02T22:30:00Z,28.9818,-94.9186,1004.13,11111222 
TABS,ioos:station:wmo:42043:1,2009-04-02T23:00:00Z,28.9818,-94.9186,1003.81,11111222 
TABS,ioos:station:wmo:42043:1,2009-04-02T23:30:00Z,28.9818,-94.9186,1004.86,11111222 
TABS,ioos:station:wmo:42043:1,2009-04-03T00:00:00Z,28.9818,-94.9186,1004.99,11111222 
TABS,ioos:station:wmo:42043:1,2009-04-03T00:30:00Z,28.9818,-94.9186,1005.34,11111222 
TABS,ioos:station:wmo:42043:1,2009-04-03T01:00:00Z,28.9818,-94.9186,1005.97,11111222 
TABS,ioos:station:wmo:42043:1,2009-04-03T01:30:00Z,28.9818,-94.9186,1006.84,11111222 
TABS,ioos:station:wmo:42043:1,2009-04-03T02:00:00Z,28.9818,-94.9186,1007.41,11111222 
TABS,ioos:station:wmo:42043:1,2009-04-03T02:30:00Z,28.9818,-94.9186,1008.12,11111222 
TABS,ioos:station:wmo:42043:1,2009-04-03T03:00:00Z,28.9818,-94.9186,1008.81,11111222 
TABS,ioos:station:wmo:42043:1,2009-04-03T03:30:00Z,28.9818,-94.9186,1009.29,11111222 
TABS,ioos:station:wmo:42043:1,2009-04-03T04:00:00Z,28.9818,-94.9186,1009.85,11111222 
TABS,ioos:station:wmo:42043:1,2009-04-03T04:30:00Z,28.9818,-94.9186,1010.1,11111222 
TABS,ioos:station:wmo:42043:1,2009-04-03T05:00:00Z,28.9818,-94.9186,1010.36,11111222 
TABS,ioos:station:wmo:42043:1,2009-04-03T05:30:00Z,28.9818,-94.9186,1010.34,11111222 
TABS,ioos:station:wmo:42043:1,2009-04-03T06:00:00Z,28.9818,-94.9186,1010.41,11111222 
TABS,ioos:station:wmo:42043:1,2009-04-03T06:30:00Z,28.9818,-94.9186,1010.58,11111222 
TABS,ioos:station:wmo:42043:1,2009-04-03T07:00:00Z,28.9818,-94.9186,1010.61,11111222 
TABS,ioos:station:wmo:42043:1,2009-04-03T07:30:00Z,28.9818,-94.9186,1010.5,11111222 
TABS,ioos:station:wmo:42043:1,2009-04-03T08:00:00Z,28.9818,-94.9186,1010.04,11111222 
TABS,ioos:station:wmo:42043:1,2009-04-03T08:30:00Z,28.9818,-94.9186,1009.67,11111222 
TABS,ioos:station:wmo:42043:1,2009-04-03T09:00:00Z,28.9818,-94.9186,1009.71,11111222 
TABS,ioos:station:wmo:42043:1,2009-04-03T09:30:00Z,28.9818,-94.9186,1009.35,11111222 
TABS,ioos:station:wmo:42043:1,2009-04-03T10:00:00Z,28.9818,-94.9186,1008.92,11111222 
TABS,ioos:station:wmo:42043:1,2009-04-03T10:30:00Z,28.9818,-94.9186,1009.16,11111222 
TABS,ioos:station:wmo:42043:1,2009-04-03T11:00:00Z,28.9818,-94.9186,1009.34,11111222 
TABS,ioos:station:wmo:42043:1,2009-04-03T11:30:00Z,28.9818,-94.9186,1009.27,11111222 
TABS,ioos:station:wmo:42043:1,2009-04-03T12:00:00Z,28.9818,-94.9186,1010.27,11111222 
TABS,ioos:station:wmo:42043:1,2009-04-03T12:30:00Z,28.9818,-94.9186,1011.06,11111222 
TABS,ioos:station:wmo:42043:1,2009-04-03T13:00:00Z,28.9818,-94.9186,1011.49,11111222 
TABS,ioos:station:wmo:42043:1,2009-04-03T13:30:00Z,28.9818,-94.9186,1012.05,11111222 
TABS,ioos:station:wmo:42043:1,2009-04-03T14:00:00Z,28.9818,-94.9186,1012.14,11111222 
TABS,ioos:station:wmo:42043:1,2009-04-03T14:30:00Z,28.9818,-94.9186,1012.59,11111222 
TABS,ioos:station:wmo:42043:1,2009-04-03T15:00:00Z,28.9818,-94.9186,1012.7,11111222 
TABS,ioos:station:wmo:42043:1,2009-04-03T15:30:00Z,28.9818,-94.9186,1012.96,11111222 
TABS,ioos:station:wmo:42043:1,2009-04-03T16:00:00Z,28.9818,-94.9186,1012.96,11111222 
TABS,ioos:station:wmo:42043:1,2009-04-03T16:30:00Z,28.9818,-94.9186,1013.35,11111222 
TABS,ioos:station:wmo:42043:1,2009-04-03T17:00:00Z,28.9818,-94.9186,1012.82,11111222 
TABS,ioos:station:wmo:42043:1,2009-04-03T17:30:00Z,28.9818,-94.9186,1012.58,11111222 
TABS,ioos:station:wmo:42043:1,2009-04-03T18:00:00Z,28.9818,-94.9186,1012.72,11111222 
TABS,ioos:station:wmo:42043:1,2009-04-03T18:30:00Z,28.9818,-94.9186,1012.5,11111222 
TABS,ioos:station:wmo:42043:1,2009-04-03T19:00:00Z,28.9818,-94.9186,1012.12,11111222 
TABS,ioos:station:wmo:42043:1,2009-04-03T19:30:00Z,28.9818,-94.9186,1011.66,11111222 
TABS,ioos:station:wmo:42043:1,2009-04-03T20:00:00Z,28.9818,-94.9186,1011.22,11111222 
TABS,ioos:station:wmo:42043:1,2009-04-03T20:30:00Z,28.9818,-94.9186,1010.84,11111222 
TABS,ioos:station:wmo:42043:1,2009-04-03T21:00:00Z,28.9818,-94.9186,1010.21,11111222 
TABS,ioos:station:wmo:42043:1,2009-04-03T21:30:00Z,28.9818,-94.9186,1009.9,11111222 
TABS,ioos:station:wmo:42043:1,2009-04-03T22:00:00Z,28.9818,-94.9186,1009.61,11111222 
TABS,ioos:station:wmo:42043:1,2009-04-03T22:30:00Z,28.9818,-94.9186,1009.5,11111222 
TABS,ioos:station:wmo:42043:1,2009-04-03T23:00:00Z,28.9818,-94.9186,1009.73,11111222 
TABS,ioos:station:wmo:42043:1,2009-04-03T23:30:00Z,28.9818,-94.9186,1009.75,11111222 
TABS,ioos:station:wmo:42043:1,2009-04-04T00:00:00Z,28.9818,-94.9186,1009.65,11111222 
TABS,ioos:station:wmo:42043:1,2009-04-04T00:30:00Z,28.9818,-94.9186,1009.61,11111222 
TABS,ioos:station:wmo:42043:1,2009-04-04T01:00:00Z,28.9818,-94.9186,1009.57,11111222 
TABS,ioos:station:wmo:42043:1,2009-04-04T01:30:00Z,28.9818,-94.9186,1009.68,11111222 
TABS,ioos:station:wmo:42043:1,2009-04-04T02:00:00Z,28.9818,-94.9186,1010.03,11111222 
TABS,ioos:station:wmo:42043:1,2009-04-04T02:30:00Z,28.9818,-94.9186,1010.13,11111222 
TABS,ioos:station:wmo:42043:1,2009-04-04T03:00:00Z,28.9818,-94.9186,1010.33,11111222 
TABS,ioos:station:wmo:42043:1,2009-04-04T03:30:00Z,28.9818,-94.9186,1010.41,11111222 
TABS,ioos:station:wmo:42043:1,2009-04-04T04:00:00Z,28.9818,-94.9186,1010.2,11111222 
TABS,ioos:station:wmo:42043:1,2009-04-04T04:30:00Z,28.9818,-94.9186,1010.12,11111222 
TABS,ioos:station:wmo:42043:1,2009-04-04T05:00:00Z,28.9818,-94.9186,1009.99,11111222 
TABS,ioos:station:wmo:42043:1,2009-04-04T05:30:00Z,28.9818,-94.9186,1009.99,11111222 
TABS,ioos:station:wmo:42043:1,2009-04-04T06:00:00Z,28.9818,-94.9186,1009.66,11111222 
TABS,ioos:station:wmo:42043:1,2009-04-04T06:30:00Z,28.9818,-94.9186,1009.44,11111222 
TABS,ioos:station:wmo:42043:1,2009-04-04T07:00:00Z,28.9818,-94.9186,1009.26,11111222 
TABS,ioos:station:wmo:42043:1,2009-04-04T07:30:00Z,28.9818,-94.9186,1009.07,11111222 
TABS,ioos:station:wmo:42043:1,2009-04-04T08:00:00Z,28.9818,-94.9186,1008.63,11111222 
TABS,ioos:station:wmo:42043:1,2009-04-04T08:30:00Z,28.9818,-94.9186,1008.15,11111222 
TABS,ioos:station:wmo:42043:1,2009-04-04T09:00:00Z,28.9818,-94.9186,1007.93,11111222 
TABS,ioos:station:wmo:42043:1,2009-04-04T09:30:00Z,28.9818,-94.9186,1007.89,11111222 
TABS,ioos:station:wmo:42043:1,2009-04-04T10:00:00Z,28.9818,-94.9186,1007.78,11111222 
TABS,ioos:station:wmo:42043:1,2009-04-04T10:30:00Z,28.9818,-94.9186,1007.98,11111222 
TABS,ioos:station:wmo:42043:1,2009-04-04T11:00:00Z,28.9818,-94.9186,1008.11,11111222 
TABS,ioos:station:wmo:42043:1,2009-04-04T11:30:00Z,28.9818,-94.9186,1008.13,11111222 
TABS,ioos:station:wmo:42043:1,2009-04-04T12:00:00Z,28.9818,-94.9186,1008.41,11111222 
TABS,ioos:station:wmo:42043:1,2009-04-04T12:30:00Z,28.9818,-94.9186,1008.28,11111222 
TABS,ioos:station:wmo:42043:1,2009-04-04T13:00:00Z,28.9818,-94.9186,1008.58,11111222 
TABS,ioos:station:wmo:42043:1,2009-04-04T13:30:00Z,28.9818,-94.9186,1009.28,11111222 
TABS,ioos:station:wmo:42043:1,2009-04-04T14:00:00Z,28.9818,-94.9186,1008.77,11111222 
TABS,ioos:station:wmo:42043:1,2009-04-04T14:30:00Z,28.9818,-94.9186,1009.02,11111222 
TABS,ioos:station:wmo:42043:1,2009-04-04T15:00:00Z,28.9818,-94.9186,1008.92,11111222 
TABS,ioos:station:wmo:42043:1,2009-04-04T15:30:00Z,28.9818,-94.9186,1009.15,11111222 
TABS,ioos:station:wmo:42043:1,2009-04-04T16:00:00Z,28.9818,-94.9186,1009.6,11111222 
TABS,ioos:station:wmo:42043:1,2009-04-04T16:30:00Z,28.9818,-94.9186,1009.93,11111222 
TABS,ioos:station:wmo:42043:1,2009-04-04T17:00:00Z,28.9818,-94.9186,1010.18,11111222 
TABS,ioos:station:wmo:42043:1,2009-04-04T17:30:00Z,28.9818,-94.9186,1010.04,11111222 
TABS,ioos:station:wmo:42043:1,2009-04-04T18:00:00Z,28.9818,-94.9186,1009.96,11111222 
TABS,ioos:station:wmo:42043:1,2009-04-04T18:30:00Z,28.9818,-94.9186,1010.02,11111222 
TABS,ioos:station:wmo:42043:1,2009-04-04T19:00:00Z,28.9818,-94.9186,1009.68,11111222 
TABS,ioos:station:wmo:42043:1,2009-04-04T19:30:00Z,28.9818,-94.9186,1009.05,11111222 
TABS,ioos:station:wmo:42043:1,2009-04-04T20:00:00Z,28.9818,-94.9186,1008.53,11111222 
TABS,ioos:station:wmo:42043:1,2009-04-04T20:30:00Z,28.9818,-94.9186,1008.01,11111222 
TABS,ioos:station:wmo:42043:1,2009-04-04T21:00:00Z,28.9818,-94.9186,1007.8,11111222 
TABS,ioos:station:wmo:42043:1,2009-04-04T21:30:00Z,28.9818,-94.9186,1007.57,11111222 
TABS,ioos:station:wmo:42043:1,2009-04-04T22:00:00Z,28.9818,-94.9186,1007.76,11111222 
TABS,ioos:station:wmo:42043:1,2009-04-04T22:30:00Z,28.9818,-94.9186,1007.61,11111222 
TABS,ioos:station:wmo:42043:1,2009-04-04T23:00:00Z,28.9818,-94.9186,1007.42,11111222 
TABS,ioos:station:wmo:42043:1,2009-04-04T23:30:00Z,28.9818,-94.9186,1007.13,11111222 
TABS,ioos:station:wmo:42043:1,2009-04-05T00:00:00Z,28.9818,-94.9186,1007.4,11111222 
TABS,ioos:station:wmo:42043:1,2009-04-05T00:30:00Z,28.9818,-94.9186,1007.36,11111222 
TABS,ioos:station:wmo:42043:1,2009-04-05T01:00:00Z,28.9818,-94.9186,1007.41,11111222 
TABS,ioos:station:wmo:42043:1,2009-04-05T01:30:00Z,28.9818,-94.9186,1007.21,11111222 
TABS,ioos:station:wmo:42043:1,2009-04-05T02:00:00Z,28.9818,-94.9186,1008.0,11111222 
TABS,ioos:station:wmo:42043:1,2009-04-05T02:30:00Z,28.9818,-94.9186,1008.41,11111222 
TABS,ioos:station:wmo:42043:1,2009-04-05T03:00:00Z,28.9818,-94.9186,1008.46,11111222 
TABS,ioos:station:wmo:42043:1,2009-04-05T03:30:00Z,28.9818,-94.9186,1008.29,11111222 
TABS,ioos:station:wmo:42043:1,2009-04-05T04:00:00Z,28.9818,-94.9186,1008.34,11111222 
TABS,ioos:station:wmo:42043:1,2009-04-05T04:30:00Z,28.9818,-94.9186,1008.4,11111222 
TABS,ioos:station:wmo:42043:1,2009-04-05T05:00:00Z,28.9818,-94.9186,1008.34,11111222 
TABS,ioos:station:wmo:42043:1,2009-04-05T05:30:00Z,28.9818,-94.9186,1008.18,11111222 
TABS,ioos:station:wmo:42043:1,2009-04-05T06:00:00Z,28.9818,-94.9186,1008.04,11111222 
TABS,ioos:station:wmo:42043:1,2009-04-05T06:30:00Z,28.9818,-94.9186,1008.05,11111222 
TABS,ioos:station:wmo:42043:1,2009-04-05T07:00:00Z,28.9818,-94.9186,1007.74,11111222 
TABS,ioos:station:wmo:42043:1,2009-04-05T07:30:00Z,28.9818,-94.9186,1007.28,11111222 
TABS,ioos:station:wmo:42043:1,2009-04-05T08:00:00Z,28.9818,-94.9186,1007.13,11111222 
TABS,ioos:station:wmo:42043:1,2009-04-05T08:30:00Z,28.9818,-94.9186,1007.2,11111222 
TABS,ioos:station:wmo:42043:1,2009-04-05T09:00:00Z,28.9818,-94.9186,1007.14,11111222 
TABS,ioos:station:wmo:42043:1,2009-04-05T09:30:00Z,28.9818,-94.9186,1006.84,11111222 
TABS,ioos:station:wmo:42043:1,2009-04-05T10:00:00Z,28.9818,-94.9186,1006.85,11111222 
TABS,ioos:station:wmo:42043:1,2009-04-05T10:30:00Z,28.9818,-94.9186,1006.85,11111222 
TABS,ioos:station:wmo:42043:1,2009-04-05T11:00:00Z,28.9818,-94.9186,1007.48,11111222 
TABS,ioos:station:wmo:42043:1,2009-04-05T11:30:00Z,28.9818,-94.9186,1008.08,11111222 
TABS,ioos:station:wmo:42043:1,2009-04-05T12:00:00Z,28.9818,-94.9186,1008.27,11111222 
TABS,ioos:station:wmo:42043:1,2009-04-05T12:30:00Z,28.9818,-94.9186,1010.59,11111222 
TABS,ioos:station:wmo:42043:1,2009-04-05T13:00:00Z,28.9818,-94.9186,1010.85,11111222 
TABS,ioos:station:wmo:42043:1,2009-04-05T13:30:00Z,28.9818,-94.9186,1011.29,11111222 
TABS,ioos:station:wmo:42043:1,2009-04-05T14:00:00Z,28.9818,-94.9186,1011.39,11111222 
TABS,ioos:station:wmo:42043:1,2009-04-05T14:30:00Z,28.9818,-94.9186,1011.87,11111222 
TABS,ioos:station:wmo:42043:1,2009-04-05T15:00:00Z,28.9818,-94.9186,1012.03,11111222 
TABS,ioos:station:wmo:42043:1,2009-04-05T15:30:00Z,28.9818,-94.9186,1011.88,11111222 
TABS,ioos:station:wmo:42043:1,2009-04-05T16:00:00Z,28.9818,-94.9186,1012.13,11111222 
TABS,ioos:station:wmo:42043:1,2009-04-05T16:30:00Z,28.9818,-94.9186,1012.51,11111222 
TABS,ioos:station:wmo:42043:1,2009-04-05T17:00:00Z,28.9818,-94.9186,1012.24,11111222 
TABS,ioos:station:wmo:42043:1,2009-04-05T17:30:00Z,28.9818,-94.9186,1012.19,11111222 
TABS,ioos:station:wmo:42043:1,2009-04-05T18:00:00Z,28.9818,-94.9186,1012.21,11111222 
TABS,ioos:station:wmo:42043:1,2009-04-05T18:30:00Z,28.9818,-94.9186,1012.07,11111222 
TABS,ioos:station:wmo:42043:1,2009-04-05T19:00:00Z,28.9818,-94.9186,1012.48,11111222 
TABS,ioos:station:wmo:42043:1,2009-04-05T19:30:00Z,28.9818,-94.9186,1011.89,11111222 
TABS,ioos:station:wmo:42043:1,2009-04-05T20:00:00Z,28.9818,-94.9186,1012.14,11111222 
TABS,ioos:station:wmo:42043:1,2009-04-05T20:30:00Z,28.9818,-94.9186,1012.23,11111222 
TABS,ioos:station:wmo:42043:1,2009-04-05T21:00:00Z,28.9818,-94.9186,1012.68,11111222 
TABS,ioos:station:wmo:42043:1,2009-04-05T21:30:00Z,28.9818,-94.9186,1012.76,11111222 
TABS,ioos:station:wmo:42043:1,2009-04-05T22:00:00Z,28.9818,-94.9186,1012.86,11111222 
TABS,ioos:station:wmo:42043:1,2009-04-05T22:30:00Z,28.9818,-94.9186,1013.26,11111222 
TABS,ioos:station:wmo:42043:1,2009-04-05T23:00:00Z,28.9818,-94.9186,1013.67,11111222 
TABS,ioos:station:wmo:42043:1,2009-04-05T23:30:00Z,28.9818,-94.9186,1014.1,11111222 
TABS,ioos:station:wmo:42043:1,2009-04-06T00:00:00Z,28.9818,-94.9186,1014.76,11111222 
TABS,ioos:station:wmo:42043:1,2009-04-06T00:30:00Z,28.9818,-94.9186,1015.3,11111222 
TABS,ioos:station:wmo:42043:1,2009-04-06T01:00:00Z,28.9818,-94.9186,1015.78,11111222 
TABS,ioos:station:wmo:42043:1,2009-04-06T01:30:00Z,28.9818,-94.9186,1016.72,11111222 
TABS,ioos:station:wmo:42043:1,2009-04-06T02:00:00Z,28.9818,-94.9186,1017.42,11111222 
TABS,ioos:station:wmo:42043:1,2009-04-06T02:30:00Z,28.9818,-94.9186,1018.45,11111222 
TABS,ioos:station:wmo:42043:1,2009-04-06T03:00:00Z,28.9818,-94.9186,1019.26,11111222 
TABS,ioos:station:wmo:42043:1,2009-04-06T03:30:00Z,28.9818,-94.9186,1020.07,11111222 
TABS,ioos:station:wmo:42043:1,2009-04-06T04:00:00Z,28.9818,-94.9186,1020.78,11111222 
TABS,ioos:station:wmo:42043:1,2009-04-06T04:30:00Z,28.9818,-94.9186,1021.07,11111222 
TABS,ioos:station:wmo:42043:1,2009-04-06T05:00:00Z,28.9818,-94.9186,1021.3,11111222 
TABS,ioos:station:wmo:42043:1,2009-04-06T05:30:00Z,28.9818,-94.9186,1021.37,11111222 
TABS,ioos:station:wmo:42043:1,2009-04-06T06:00:00Z,28.9818,-94.9186,1021.76,11111222 
TABS,ioos:station:wmo:42043:1,2009-04-06T06:30:00Z,28.9818,-94.9186,1021.81,11111222 
TABS,ioos:station:wmo:42043:1,2009-04-06T07:00:00Z,28.9818,-94.9186,1022.11,11111222 
TABS,ioos:station:wmo:42043:1,2009-04-06T07:30:00Z,28.9818,-94.9186,1022.02,11111222 
TABS,ioos:station:wmo:42043:1,2009-04-06T08:00:00Z,28.9818,-94.9186,1021.77,11111222 
TABS,ioos:station:wmo:42043:1,2009-04-06T08:30:00Z,28.9818,-94.9186,1022.02,11111222 
TABS,ioos:station:wmo:42043:1,2009-04-06T09:00:00Z,28.9818,-94.9186,1021.74,11111222 
TABS,ioos:station:wmo:42043:1,2009-04-06T09:30:00Z,28.9818,-94.9186,1021.89,11111222 
TABS,ioos:station:wmo:42043:1,2009-04-06T10:00:00Z,28.9818,-94.9186,1022.27,11111222 
TABS,ioos:station:wmo:42043:1,2009-04-06T10:30:00Z,28.9818,-94.9186,1022.67,11111222 
TABS,ioos:station:wmo:42043:1,2009-04-06T11:00:00Z,28.9818,-94.9186,1023.07,11111222 
TABS,ioos:station:wmo:42043:1,2009-04-06T11:30:00Z,28.9818,-94.9186,1023.61,11111222 
TABS,ioos:station:wmo:42043:1,2009-04-06T12:00:00Z,28.9818,-94.9186,1023.87,11111222 
TABS,ioos:station:wmo:42043:1,2009-04-06T12:30:00Z,28.9818,-94.9186,1024.54,11111222 
TABS,ioos:station:wmo:42043:1,2009-04-06T13:00:00Z,28.9818,-94.9186,1025.27,11111222 
TABS,ioos:station:wmo:42043:1,2009-04-06T13:30:00Z,28.9818,-94.9186,1025.44,11111222 
TABS,ioos:station:wmo:42043:1,2009-04-06T14:00:00Z,28.9818,-94.9186,1025.43,11111222 
TABS,ioos:station:wmo:42043:1,2009-04-06T14:30:00Z,28.9818,-94.9186,1026.2,11111222 
TABS,ioos:station:wmo:42043:1,2009-04-06T15:00:00Z,28.9818,-94.9186,1025.66,11111222 
TABS,ioos:station:wmo:42043:1,2009-04-06T15:30:00Z,28.9818,-94.9186,1025.66,11111222 
TABS,ioos:station:wmo:42043:1,2009-04-06T16:00:00Z,28.9818,-94.9186,1025.57,11111222 
TABS,ioos:station:wmo:42043:1,2009-04-06T16:30:00Z,28.9818,-94.9186,1025.9,11111222 
TABS,ioos:station:wmo:42043:1,2009-04-06T17:00:00Z,28.9818,-94.9186,1025.59,11111222 
TABS,ioos:station:wmo:42043:1,2009-04-06T17:30:00Z,28.9818,-94.9186,1025.26,11111222 
TABS,ioos:station:wmo:42043:1,2009-04-06T18:00:00Z,28.9818,-94.9186,1024.97,11111222 
TABS,ioos:station:wmo:42043:1,2009-04-06T18:30:00Z,28.9818,-94.9186,1024.52,11111222 